| time (UTC) | temp F | wind direction | speed MPH | gust MPH | rain 1hr in | rain 24hr in | rain mn in | humidity % | barometer mb |
| 20260905064552 | 68 | 212 | 0.0 | 2.0 | 0.00 | 0.19 | 0.00 | 84 | 1012.9 |
| 20260905063048 | 69 | 356 | 0.0 | 1.0 | 0.00 | 0.19 | 0.00 | 84 | 1013.1 |
| 20260905061545 | 69 | 15 | 0.0 | 5.0 | 0.00 | 0.19 | 0.00 | 84 | 1013.6 |
| 20260905060041 | 69 | 11 | 0.0 | 0.0 | 0.00 | 0.19 | 0.00 | 84 | 1013.8 |
| 20260905054548 | 69 | 352 | 0.0 | 0.0 | 0.00 | 0.19 | 0.00 | 84 | 1014.0 |
| 20260905053042 | 68 | 16 | 0.0 | 2.0 | 0.00 | 0.19 | 0.00 | 84 | 1013.8 |
| 20260905051539 | 68 | 6 | 0.0 | 0.0 | 0.00 | 0.19 | 0.00 | 84 | 1013.7 |
| 20260905050027 | 68 | 6 | 0.0 | 1.0 | 0.00 | 0.19 | 0.00 | 84 | 1013.9 |
| 20260905044525 | 69 | 356 | 0.0 | 0.0 | 0.00 | 0.19 | 0.00 | 84 | 1014.1 |
| 20260905043021 | 69 | 356 | 0.0 | 0.0 | 0.00 | 0.19 | 0.00 | 85 | 1014.0 |
| 20260905041516 | 70 | 356 | 0.0 | 1.0 | 0.00 | 0.19 | 0.00 | 85 | 1014.1 |
| 20260905040015 | 71 | 352 | 0.0 | 2.0 | 0.00 | 0.19 | 0.00 | 85 | 1014.3 |
| 20260905034508 | 71 | 347 | 0.0 | 4.0 | 0.00 | 0.19 | 0.19 | 85 | 1014.4 |
| 20260905033011 | 71 | 346 | 0.0 | 3.0 | 0.00 | 0.19 | 0.19 | 85 | 1014.6 |
| 20260905031508 | 71 | 6 | 0.0 | 4.0 | 0.00 | 0.19 | 0.19 | 85 | 1014.6 |
| 20260905030004 | 72 | 14 | 1.0 | 5.0 | 0.00 | 0.19 | 0.19 | 85 | 1014.7 |
| 20260905024601 | 72 | 7 | 0.0 | 4.0 | 0.00 | 0.19 | 0.19 | 85 | 1014.5 |
| 20260905023101 | 72 | 352 | 0.0 | 3.0 | 0.00 | 0.19 | 0.19 | 85 | 1014.6 |
| 20260905021557 | 72 | 22 | 0.0 | 5.0 | 0.00 | 0.19 | 0.19 | 85 | 1014.6 |
| 20260905020058 | 72 | 352 | 0.0 | 4.0 | 0.00 | 0.19 | 0.19 | 85 | 1014.8 |
| 20260905014551 | 73 | 9 | 0.0 | 2.0 | 0.00 | 0.19 | 0.19 | 85 | 1014.8 |
| 20260905013047 | 73 | 41 | 0.0 | 0.0 | 0.00 | 0.19 | 0.19 | 85 | 1014.6 |
| 20260905011547 | 74 | 273 | 0.0 | 0.0 | 0.00 | 0.19 | 0.19 | 85 | 1014.5 |
| 20260905010053 | 75 | 217 | 0.0 | 1.0 | 0.00 | 0.19 | 0.19 | 86 | 1014.4 |
| 20260905004541 | 76 | 213 | 0.0 | 1.0 | 0.00 | 0.19 | 0.19 | 86 | 1014.3 |
| 20260905003039 | 76 | 196 | 0.0 | 0.0 | 0.00 | 0.19 | 0.19 | 86 | 1014.3 |
| 20260905001538 | 77 | 196 | 0.0 | 1.0 | 0.00 | 0.19 | 0.19 | 86 | 1014.1 |
| 20260905000040 | 77 | 281 | 0.0 | 1.0 | 0.00 | 0.19 | 0.19 | 86 | 1013.9 |
| 20260904234541 | 77 | 281 | 0.0 | 0.0 | 0.00 | 0.19 | 0.19 | 86 | 1013.8 |
| 20260904233031 | 78 | 281 | 0.0 | 1.0 | 0.00 | 0.19 | 0.19 | 86 | 1013.7 |
| 20260904231529 | 78 | 259 | 0.0 | 1.0 | 0.00 | 0.19 | 0.19 | 86 | 1013.6 |
| 20260904230027 | 78 | 335 | 0.0 | 2.0 | 0.00 | 0.19 | 0.19 | 86 | 1013.3 |
| 20260904224526 | 78 | 271 | 0.0 | 1.0 | 0.00 | 0.19 | 0.19 | 86 | 1013.4 |
| 20260904223022 | 78 | 271 | 0.0 | 2.0 | 0.00 | 0.19 | 0.19 | 86 | 1013.3 |
| 20260904221521 | 78 | 252 | 0.0 | 3.0 | 0.00 | 0.19 | 0.19 | 86 | 1013.2 |
| 20260904220019 | 78 | 283 | 0.0 | 3.0 | 0.00 | 0.19 | 0.19 | 86 | 1013.3 |
| 20260904214515 | 78 | 329 | 2.0 | 5.0 | 0.00 | 0.19 | 0.19 | 86 | 1013.1 |
| 20260904213013 | 78 | 313 | 2.0 | 5.0 | 0.00 | 0.19 | 0.19 | 86 | 1013.1 |
| 20260904211509 | 78 | 46 | 1.0 | 4.0 | 0.00 | 0.19 | 0.19 | 86 | 1012.8 |
| 20260904210007 | 78 | 294 | 0.0 | 3.0 | 0.00 | 0.19 | 0.19 | 86 | 1012.7 |
| 20260904204504 | 78 | 290 | 0.0 | 3.0 | 0.00 | 1.13 | 0.19 | 86 | 1012.6 |
| 20260904203100 | 77 | 303 | 0.0 | 6.0 | 0.00 | 1.13 | 0.19 | 85 | 1012.5 |
| 20260904201555 | 77 | 307 | 0.0 | 3.0 | 0.00 | 1.13 | 0.19 | 85 | 1012.8 |
| 20260904200052 | 77 | 311 | 0.0 | 2.0 | 0.00 | 1.13 | 0.19 | 85 | 1013.0 |
| 20260904194549 | 76 | 330 | 0.0 | 2.0 | 0.00 | 1.13 | 0.19 | 85 | 1013.0 |
| 20260904193048 | 76 | 285 | 0.0 | 4.0 | 0.00 | 1.13 | 0.19 | 85 | 1013.2 |
| 20260904191538 | 75 | 131 | 0.0 | 2.0 | 0.00 | 1.13 | 0.19 | 85 | 1013.4 |
| 20260904190036 | 75 | 203 | 0.0 | 0.0 | 0.00 | 1.13 | 0.19 | 85 | 1013.6 |
| 20260904184535 | 74 | 274 | 1.0 | 3.0 | 0.00 | 1.13 | 0.19 | 84 | 1013.7 |
| 20260904183028 | 73 | 193 | 0.0 | 3.0 | 0.00 | 1.13 | 0.19 | 84 | 1013.8 |
| 20260904181524 | 73 | 172 | 1.0 | 3.0 | 0.00 | 1.13 | 0.19 | 84 | 1014.1 |
| 20260904180022 | 73 | 166 | 0.0 | 5.0 | 0.00 | 1.13 | 0.19 | 84 | 1014.0 |
| 20260904174518 | 73 | 198 | 1.0 | 4.0 | 0.00 | 1.22 | 0.19 | 84 | 1014.2 |
| 20260904173016 | 72 | 148 | 1.0 | 4.0 | 0.00 | 1.22 | 0.19 | 84 | 1014.1 |
| 20260904171513 | 72 | 195 | 1.0 | 4.0 | 0.00 | 1.22 | 0.19 | 84 | 1014.5 |
| 20260904170010 | 71 | 257 | 1.0 | 2.0 | 0.00 | 1.22 | 0.19 | 84 | 1014.6 |
| 20260904164509 | 71 | 162 | 0.0 | 1.0 | 0.00 | 1.37 | 0.19 | 83 | 1014.5 |
| 20260904163003 | 71 | 108 | 0.0 | 1.0 | 0.00 | 1.37 | 0.19 | 83 | 1015.0 |
| 20260904161503 | 70 | 105 | 0.0 | 0.0 | 0.01 | 1.37 | 0.19 | 83 | 1015.2 |
| 20260904160101 | 71 | 300 | 0.0 | 2.0 | 0.02 | 1.37 | 0.19 | 83 | 1015.3 |
| 20260904154559 | 70 | 352 | 0.0 | 3.0 | 0.05 | 1.51 | 0.19 | 83 | 1015.7 |
| 20260904153057 | 70 | 228 | 1.0 | 4.0 | 0.06 | 1.51 | 0.19 | 83 | 1015.8 |
| 20260904151554 | 69 | 131 | 0.0 | 0.0 | 0.07 | 1.51 | 0.19 | 83 | 1016.4 |
| 20260904150049 | 69 | 266 | 0.0 | 2.0 | 0.07 | 1.49 | 0.17 | 83 | 1016.5 |
| 20260904144546 | 69 | 192 | 0.0 | 2.0 | 0.08 | 1.46 | 0.14 | 83 | 1016.5 |
| 20260904143043 | 69 | 352 | 0.0 | 1.0 | 0.09 | 1.45 | 0.13 | 83 | 1016.4 |
| 20260904141541 | 69 | 353 | 0.0 | 0.0 | 0.08 | 1.44 | 0.12 | 82 | 1016.1 |
| 20260904140058 | 69 | 353 | 0.0 | 0.0 | 0.05 | 1.41 | 0.09 | 82 | 1016.0 |
| 20260904134542 | 69 | 353 | 0.0 | 2.0 | 0.03 | 1.38 | 0.06 | 82 | 1016.5 |
| 20260904133034 | 69 | 23 | 0.0 | 2.0 | 0.01 | 1.36 | 0.04 | 82 | 1015.9 |
| 20260904131530 | 69 | 274 | 0.0 | 1.0 | 0.01 | 1.36 | 0.04 | 82 | 1016.1 |
| 20260904130043 | 69 | 274 | 0.0 | 0.0 | 0.01 | 1.36 | 0.04 | 82 | 1015.7 |
| 20260904124525 | 69 | 274 | 0.0 | 1.0 | 0.00 | 1.35 | 0.03 | 82 | 1015.7 |
| 20260904123023 | 69 | 264 | 0.0 | 0.0 | 0.01 | 1.35 | 0.03 | 82 | 1015.4 |
| 20260904121622 | 68 | 264 | 0.0 | 1.0 | 0.03 | 1.35 | 0.03 | 82 | 1015.4 |
| 20260904120019 | 68 | 230 | 0.0 | 0.0 | 0.03 | 1.35 | 0.03 | 82 | 1015.6 |
| 20260904114513 | 68 | 157 | 0.0 | 0.0 | 0.03 | 1.35 | 0.03 | 82 | 1015.4 |
| 20260904113011 | 68 | 157 | 0.0 | 0.0 | 0.00 | 1.32 | 0.00 | 82 | 1015.0 |
| 20260904111511 | 68 | 154 | 0.0 | 0.0 | 0.00 | 1.32 | 0.00 | 82 | 1015.0 |
| 20260904110007 | 68 | 154 | 0.0 | 0.0 | 0.00 | 1.32 | 0.00 | 82 | 1015.1 |
| 20260904104503 | 68 | 188 | 0.0 | 0.0 | 0.00 | 1.32 | 0.00 | 81 | 1014.9 |
| 20260904103002 | 67 | 250 | 0.0 | 0.0 | 0.00 | 1.32 | 0.00 | 81 | 1014.6 |
| 20260904101601 | 67 | 251 | 0.0 | 0.0 | 0.00 | 1.32 | 0.00 | 81 | 1014.1 |
| 20260904100109 | 67 | 251 | 0.0 | 0.0 | 0.00 | 1.32 | 0.00 | 81 | 1014.1 |
| 20260904094555 | 67 | 251 | 0.0 | 0.0 | 0.00 | 1.32 | 0.00 | 81 | 1013.9 |
| 20260904093055 | 67 | 250 | 0.0 | 0.0 | 0.00 | 1.32 | 0.00 | 81 | 1014.5 |
| 20260904091550 | 67 | 250 | 0.0 | 0.0 | 0.00 | 1.32 | 0.00 | 81 | 1014.8 |
| 20260904090048 | 67 | 251 | 0.0 | 0.0 | 0.00 | 1.32 | 0.00 | 81 | 1014.8 |
| 20260904084546 | 67 | 195 | 0.0 | 0.0 | 0.00 | 1.32 | 0.00 | 81 | 1014.6 |
| 20260904083044 | 67 | 199 | 0.0 | 2.0 | 0.00 | 1.32 | 0.00 | 81 | 1015.0 |
| 20260904081541 | 67 | 313 | 0.0 | 1.0 | 0.00 | 1.32 | 0.00 | 81 | 1014.9 |
| 20260904080040 | 67 | 317 | 0.0 | 1.0 | 0.00 | 1.32 | 0.00 | 81 | 1014.6 |
| 20260904074542 | 67 | 280 | 0.0 | 2.0 | 0.00 | 1.47 | 0.00 | 81 | 1014.3 |
| 20260904073037 | 67 | 325 | 0.0 | 2.0 | 0.00 | 1.47 | 0.00 | 81 | 1014.4 |
| 20260904071533 | 67 | 30 | 0.0 | 4.0 | 0.00 | 1.47 | 0.00 | 81 | 1014.5 |
| 20260904070029 | 67 | 354 | 0.0 | 2.0 | 0.00 | 1.47 | 0.00 | 81 | 1014.8 |